Air Resources Laboratory banner image
Air Resources Laboratory web site National Oceanic and Atmospheric Administration (NOAA)

pa roundup


Office: CTP

ASUS41 KCTP 121603
RWRCTP

REGIONAL WEATHER ROUNDUP
NATIONAL WEATHER SERVICE STATE COLLEGE PA
1100 AM EST TUE DEC 12 2017

Note: "fair" indicates few or no clouds below 12,000 feet with no
significant weather and/or obstructions to visibility.

* = STATION THAT DOES NOT REPORT PRECIPITATION /E.G. RAIN...SNOW...ETC/
    THUNDER OR FOG.

PAZ002>004-007>009-013>016-020>023-029>032-121700-
WESTERN PENNSYLVANIA

CITY           SKY/WX    TMP DP  RH WIND       PRES   REMARKS
ERIE           CLOUDY    25  15  66 W17G31    29.69R WCI  12
MEADVILLE      FLURRIES  21  15  78 W17G29    29.66S WCI   7
FRANKLIN*      LGT SNOW  22  18  85 NW12G21   29.65R VSB 3/4 WCI  10
NEW CASTLE     NOT AVBL
BEAVER COUNTY  LGT SNOW  27  21  80 NW12G21   29.69R
BUTLER*        LGT SNOW  27  23  86 NW10G23   29.67R VSB 1
PITTSBURGH INT CLOUDY    31  24  75 NW20      29.67R
PITTSBURGH     CLOUDY    29  22  75 NW14G26   29.66R
INDIANA*       FOG       30  28  93 NW17      29.64R VSB 1/2
LATROBE        LGT SNOW  32  28  86 W12G23    29.65R
WASHINGTON CO* FLURRIES  30  24  78 NW10G21   29.72R
$$

PAZ004>006-010>012-017>019-024>028-033>037-041-042-045-046-049>053-121700-
CENTRAL PENNSYLVANIA

CITY           SKY/WX    TMP DP  RH WIND       PRES   REMARKS
BRADFORD       LGT SNOW  25  21  85 NW23G32   29.51R VSB 3/4 WCI  10
DUBOIS         LGT SNOW  26  20  77 NW20G32   29.55R VSB 3/4 WCI  12
CLEARFIELD     LGT SNOW  32  29  88 SW8       29.54F FOG
JOHNSTOWN      LGT SNOW  28  26  92 W14G22    29.54S VSB 1
ALTOONA        LGT SNOW  35  29  78 W15       29.56S
STATE COLLEGE  FLURRIES  34  30  86 W12       29.54F
WILLIAMSPORT   CLOUDY    39  33  79 W7        29.52F
SELINSGROVE    CLOUDY    39  32  76 S3        29.54F
FT INDIANTOWN  CLOUDY    40  34  81 CALM      29.52F
CAPITAL CITY   CLOUDY    42  29  59 W8        29.54F
HARRISBURG     CLOUDY    42  32  67 NW8       29.53F
YORK           CLOUDY    43  32  65 W7        29.53F
$$

PAZ038>040-043-044-047-048-054-055-060>062-067>071-121700-
EASTERN PENNSYLVANIA

CITY           SKY/WX    TMP DP  RH WIND       PRES   REMARKS
SCRANTON       CLOUDY    39  31  72 SW8       29.49F
MOUNT POCONO   CLOUDY    33  32  96 SW7       29.47F
ALLENTOWN      CLOUDY    42  32  67 SW5       29.53F
QUAKERTOWN*    CLOUDY    39  34  81 SW6       29.53F
READING        CLOUDY    42  36  79 S5        29.53F
LANCASTER        N/A     42  35  76 SW6       29.53F
COATESVILLE    CLOUDY    41  36  81 VRB3      29.54F
POTTSTOWN      CLOUDY    40  33  76 S7        29.55F
BLUE BELL      CLOUDY    43  34  70 SW6       29.55F
DOYLESTOWN     CLOUDY    43  33  68 SW9       29.53F
WILLOW GROVE   NOT AVBL
NORTH PHILA    CLOUDY    47  35  63 SW10      29.56F
PHILADELPHIA   CLOUDY    45  34  65 SW10      29.56F
$$




Office: PHI ASUS41 KPHI 121512 RWRPHI REGIONAL WEATHER ROUNDUP NATIONAL WEATHER SERVICE MOUNT HOLLY NJ 1000 AM EST TUE DEC 12 2017 NOTE: "FAIR" INDICATES FEW OR NO CLOUDS BELOW 12,000 FEET WITH NO SIGNIFICANT WEATHER AND/OR OBSTRUCTIONS TO VISIBILITY. * = STATION DOES NOT REPORT PRECIPITATION (E.G. RAIN, SNOW, ETC.) OR FOG. NJZ015>026-121600- SOUTHERN NEW JERSEY CITY SKY/WX TMP DP RH WIND PRES REMARKS POMONA MOSUNNY 52 40 63 S12G21 29.57F WILDWOOD* PTSUNNY 49 37 63 SW17G23 29.59F MILLVILLE CLOUDY 47 36 65 SW9G17 29.59R WRIGHTSTOWN PTSUNNY 47 39 72 S10 29.54F MOUNT HOLLY CLOUDY 46 36 68 SW7 29.59R TRENTON CLOUDY 44 37 76 SW3 29.57F $$ NJZ001>014-121600- NORTHERN NEW JERSEY CITY SKY/WX TMP DP RH WIND PRES REMARKS SUSSEX CLOUDY 42 35 76 SW6 29.55F ANDOVER* NOT AVBL MORRISTOWN LGT RAIN 41 37 87 NE3 29.57F NEWARK CLOUDY 49 39 68 S7 29.57F TETERBORO CLOUDY 50 39 66 S12G20 29.56F CALDWELL LGT RAIN 46 38 73 VRB5 29.57F SOMERVILLE CLOUDY 38 38 100 CALM 29.56F ALLAIRE* MOSUNNY 49 40 71 S12 29.57F TOMS RIVER* CLOUDY 50 41 71 S7 29.57F $$ PAZ043-044-047-054-055-060>062-066>071-121600- EASTERN PENNSYLVANIA CITY SKY/WX TMP DP RH WIND PRES REMARKS PHILADELPHIA CLOUDY 45 33 63 SW15G22 29.59R NORTH PHILA CLOUDY 47 35 63 SW5 29.59S BLUE BELL* CLOUDY 43 34 70 SW8 29.59S DOYLESTOWN CLOUDY 40 35 83 CALM 29.56F QUAKERTOWN* CLOUDY 37 32 81 CALM 29.57S POTTSTOWN CLOUDY 40 33 76 S3 29.58F LANCASTER CLOUDY 41 34 76 SW6 29.56F COATESVILLE CLOUDY 39 36 87 CALM 29.57F READING CLOUDY 41 36 82 S5 29.56F ALLENTOWN CLOUDY 39 32 76 CALM 29.57F MOUNT POCONO CLOUDY 33 32 96 S7 29.50F WCI 27 HAZLETON CLOUDY 36 32 87 CALM 29.53S LEHIGHTON CLOUDY 36 32 87 CALM 29.56F WILKES BARRE CLOUDY 39 32 76 SW7 29.52F WCI 34 $$ DEZALL-MDZ008-012-015-019-020-121600- DELAWARE AND EASTERN MARYLAND CITY SKY/WX TMP DP RH WIND PRES REMARKS WILMINGTON CLOUDY 44 36 73 SW8 29.59F DOVER PTSUNNY 46 39 79 SW10 29.58S GEORGETOWN MOSUNNY 45 35 68 SW9 29.59F EASTON CLOUDY 46 34 61 W8 29.64R ABERDEEN CLOUDY 43 36 75 SW6 29.59F PATUXENT CLOUDY 44 34 67 SW14 29.59F OCEAN CITY CLOUDY 48 39 71 SW13 29.60F WALLOPS ISLAND CLOUDY 48 37 65 SW10 29.61F CAMBRIDGE SUNNY 45 36 70 VRB7G14 29.60S SALISBURY MOSUNNY 43 37 79 SW9 29.59F $$ PAZ001-021-NYZ056-072-MDZ011-DCZ001-121600- OTHER NEARBY LOCATIONS CITY SKY/WX TMP DP RH WIND PRES REMARKS HARRISBURG CLOUDY 40 32 73 CALM 29.55F STATE COLLEGE LGT SNOW 34 32 93 W12 29.54R WCI 25 WILLIAMSPORT CLOUDY 39 32 76 W7 29.53S WCI 34 BINGHAMTON CLOUDY 32 29 88 S8 29.45F WCI 25 NEW YORK CITY CLOUDY 50 40 68 S10G23 29.59F BALTIMORE CLOUDY 42 32 67 SW5 29.58F WASHINGTON DC CLOUDY 44 32 62 SW5 29.60F $$